| time (UTC) | temp F | wind direction | speed MPH | gust MPH | rain 1hr in | rain 24hr in | rain mn in | humidity % | barometer mb |
| 20260505061546 | 47 | 243 | 8.0 | 18.0 | 0.00 | 0.10 | 0.00 | 80 | 1007.6 |
| 20260505060034 | 47 | 267 | 7.0 | 17.0 | 0.00 | 0.10 | 0.00 | 80 | 1007.4 |
| 20260505054558 | 48 | 281 | 6.0 | 18.0 | 0.00 | 0.11 | 0.00 | 79 | 1006.9 |
| 20260505053036 | 48 | 287 | 8.0 | 14.0 | 0.00 | 0.11 | 0.00 | 79 | 1006.7 |
| 20260505051535 | 48 | 233 | 8.0 | 14.0 | 0.00 | 0.11 | 0.00 | 79 | 1006.5 |
| 20260505041535 | 49 | 227 | 6.0 | 16.0 | 0.00 | 0.13 | 0.00 | 77 | 1005.5 |
| 20260505040035 | 49 | 240 | 8.0 | 17.0 | 0.00 | 0.13 | 0.00 | 76 | 1005.5 |
| 20260505034533 | 49 | 246 | 8.0 | 17.0 | 0.00 | 0.13 | 0.00 | 76 | 1005.3 |
| 20260505033037 | 50 | 207 | 10.0 | 19.0 | 0.00 | 0.13 | 0.00 | 74 | 1005.0 |
| 20260505031546 | 50 | 246 | 9.0 | 15.0 | 0.00 | 0.13 | 0.00 | 74 | 1004.8 |
| 20260505030035 | 51 | 249 | 10.0 | 18.0 | 0.00 | 0.13 | 0.00 | 73 | 1004.7 |
| 20260505024538 | 51 | 217 | 8.0 | 19.0 | 0.00 | 0.13 | 0.13 | 73 | 1004.6 |
| 20260505023035 | 51 | 259 | 10.0 | 24.0 | 0.00 | 0.13 | 0.13 | 72 | 1004.3 |
| 20260505021538 | 50 | 252 | 9.0 | 18.0 | 0.00 | 0.13 | 0.13 | 73 | 1004.1 |
| 20260505020035 | 50 | 211 | 6.0 | 14.0 | 0.00 | 0.13 | 0.13 | 74 | 1003.9 |
| 20260505014538 | 50 | 234 | 7.0 | 16.0 | 0.00 | 0.15 | 0.13 | 72 | 1003.7 |
| 20260505013036 | 50 | 251 | 6.0 | 14.0 | 0.00 | 0.15 | 0.13 | 72 | 1003.8 |
| 20260505011536 | 51 | 226 | 8.0 | 17.0 | 0.00 | 0.15 | 0.13 | 72 | 1003.7 |
| 20260505010035 | 51 | 240 | 9.0 | 21.0 | 0.00 | 0.15 | 0.13 | 71 | 1003.6 |
| 20260505004545 | 50 | 244 | 6.0 | 16.0 | 0.00 | 0.21 | 0.13 | 70 | 1003.6 |
| 20260505003034 | 51 | 221 | 8.0 | 17.0 | 0.00 | 0.21 | 0.13 | 68 | 1003.5 |
| 20260505001537 | 51 | 258 | 7.0 | 19.0 | 0.00 | 0.21 | 0.13 | 64 | 1003.4 |
| 20260505000051 | 52 | 225 | 11.0 | 24.0 | 0.00 | 0.21 | 0.13 | 59 | 1003.5 |
| 20260504234535 | 51 | 247 | 8.0 | 18.0 | 0.00 | 0.40 | 0.13 | 61 | 1002.8 |
| 20260504233040 | 50 | 219 | 5.0 | 11.0 | 0.00 | 0.40 | 0.13 | 66 | 1002.6 |
| 20260504231532 | 50 | 240 | 4.0 | 9.0 | 0.00 | 0.40 | 0.13 | 65 | 1002.4 |
| 20260504230046 | 51 | 215 | 4.0 | 14.0 | 0.00 | 0.40 | 0.13 | 64 | 1002.2 |
| 20260504224533 | 52 | 213 | 6.0 | 15.0 | 0.00 | 0.55 | 0.13 | 61 | 1002.2 |
| 20260504223032 | 53 | 239 | 7.0 | 16.0 | 0.00 | 0.55 | 0.13 | 59 | 1002.3 |
| 20260504221544 | 53 | 219 | 9.0 | 21.0 | 0.00 | 0.55 | 0.13 | 58 | 1001.8 |
| 20260504220035 | 53 | 230 | 8.0 | 27.0 | 0.00 | 0.55 | 0.13 | 60 | 1002.0 |
| 20260504214538 | 53 | 238 | 10.0 | 21.0 | 0.00 | 0.71 | 0.13 | 57 | 1001.7 |
| 20260504213042 | 53 | 262 | 9.0 | 24.0 | 0.00 | 0.71 | 0.13 | 58 | 1001.7 |
| 20260504211535 | 53 | 220 | 9.0 | 21.0 | 0.00 | 0.71 | 0.13 | 57 | 1001.4 |
| 20260504210032 | 53 | 238 | 12.0 | 24.0 | 0.00 | 0.71 | 0.13 | 58 | 1001.4 |
| 20260504204541 | 54 | 268 | 8.0 | 28.0 | 0.00 | 0.76 | 0.13 | 56 | 1001.2 |
| 20260504203038 | 53 | 259 | 12.0 | 24.0 | 0.00 | 0.76 | 0.13 | 56 | 1001.0 |
| 20260504201537 | 53 | 229 | 11.0 | 34.0 | 0.00 | 0.76 | 0.13 | 62 | 1000.7 |
| 20260504200036 | 53 | 269 | 13.0 | 27.0 | 0.00 | 0.76 | 0.13 | 64 | 1000.4 |
| 20260504194537 | 52 | 209 | 10.0 | 30.0 | 0.00 | 0.77 | 0.13 | 68 | 999.9 |
| 20260504193035 | 53 | 194 | 15.0 | 36.0 | 0.00 | 0.77 | 0.13 | 68 | 999.5 |
| 20260504191534 | 52 | 271 | 16.0 | 29.0 | 0.00 | 0.77 | 0.13 | 71 | 999.1 |
| 20260504190034 | 52 | 229 | 11.0 | 26.0 | 0.00 | 0.77 | 0.13 | 74 | 998.9 |
| 20260504184535 | 50 | 269 | 11.0 | 28.0 | 0.00 | 0.80 | 0.13 | 77 | 999.0 |
| 20260504183036 | 49 | 247 | 12.0 | 27.0 | 0.00 | 0.80 | 0.13 | 78 | 998.8 |
| 20260504181533 | 48 | 245 | 12.0 | 25.0 | 0.00 | 0.80 | 0.13 | 81 | 998.4 |
| 20260504180038 | 46 | 244 | 12.0 | 24.0 | 0.00 | 0.80 | 0.13 | 82 | 998.3 |
| 20260504174538 | 46 | 269 | 13.0 | 26.0 | 0.00 | 0.80 | 0.13 | 83 | 998.1 |
| 20260504173037 | 46 | 228 | 10.0 | 21.0 | 0.00 | 0.80 | 0.13 | 84 | 998.1 |
| 20260504171536 | 45 | 231 | 11.0 | 24.0 | 0.00 | 0.80 | 0.13 | 85 | 997.7 |
| 20260504081537 | 39 | 225 | 9.0 | 24.0 | 0.01 | 0.74 | 0.07 | 93 | 977.9 |